User: anonymous   Login
Location: Bothwell
(42.3833°S, 147.0000°E)
Time: 01:05:49
(UTC+10:00)
Language:

XW-2B - Orbit

View from above orbital plane
View from above orbital plane
View from above satellite
View from above satellite

Ground track
Ground track

The orbit data is extracted from the following two-line orbital elements,

1 40911U 15049N   22274.08974190  .00007517  00000-0  34438-3 0  9994
2 40911  97.4943 277.3879 0012200 356.4309  44.1215 15.20705947388906
Epoch (UTC): 01 October 2022 02:09:13
Eccentricity: 0.0012200
inclination: 97.4943°
perigee height: 495 km
apogee height: 512 km
right ascension of ascending node: 277.3879°
argument of perigee: 356.4309°
revolutions per day: 15.20705947
mean anomaly at epoch: 44.1215°
orbit number at epoch: 38890

The dashed part of the orbit path shows where the satellite is in the earth's shadow,  

DLR